Weather in Shoy-Shudumar'

Russia / Mari El Republic     56°45′48″N   49°05′11″E
temp.,
°C
wind,
m/s
gust,
m/s
humid.,
%
clouds,
%
prec.,
mm/h
press.,
hPa
HPBL,
m
27 february, sat
sat2700:00−15se81495100 4.6 1001673
03:00−14ese61295100 6.8 1000555
06:00−14ese51095100 1.4 999466
09:00−13e61094100 1.9 999484
12:00−12ene6992100 0.3 1000605
15:00−12ne6992100 0.6 1002606
18:00−13nne51093100 0.2 1004504
21:00−15nne51096100 0.3 1005273
28 february, sun
sun2800:00−18n489799 0.0 1007191
03:00−20n499884 0.1 1008183
06:00−21n499880 0.0 1009182
09:00−19n479672 0.0 1011235
12:00−17n469360 0.0 1011329
15:00−16n589276 0.0 1013464
18:00−19n349896 0.0 101575
21:00−21n349857 0.0 101758
1 march, mon
mon100:00−22n33990 0.0 101939
03:00−22n23990 0.0 102020
06:00−23n23990 0.0 102221
09:00−19n22950 0.0 1023103
12:00−14wnw11864 0.0 1022268
15:00−13wnw349033 0.0 1022338
18:00−16sw239724 0.0 102022
21:00−17sw489951 0.0 1019142
2 march, tue
tue200:00−17ssw5109892 0.0 1016213
03:00−15ssw6119796 0.1 1012261
06:00−12ssw61294100 0.6 1007385
09:00−10ssw61194100 1.1 1004400
12:00−5ssw61095100 0.8 1001430
15:00−3s5897100 1.8 999417
18:00−2sse3598100 1.1 999164
21:00−2n2499100 2.1 999218
3 march, wed
wed300:00−6n4896100 0.6 1000276
03:00−9nnw3897100 0.7 1001158
06:00−10nnw4896100 0.1 1002169
09:00−6nnw5109596 0.2 1003359
12:00−4nnw589495 0.1 1005514
15:00−4nnw7109298 0.4 1006753
18:00−7nnw51288100 0.1 1007478
21:00−10nw499471 0.1 1009150